Terminal Aerodrome Forecast
Issued by NWS Hastings, NE

Home | Current Version | Previous Version | Text Only | Print | Product List | Glossary On
Versions: 1 2 3 4 5 6 7 8 9 10 11 12 13 14 15 16
000
FTUS43 KGID 251120
TAFGRI
TAF
KGRI 251120Z 2512/2612 01011KT P6SM SHRA OVC007
     FM251500 01011G15KT 6SM SHRA OVC008
     FM252100 01012G16KT 6SM SHRA OVC011
     FM260100 36009KT P6SM SHRA OVC015
     FM260600 34009KT P6SM OVC015=

USA.gov is the U.S. government's official web portal to all federal, state and local government web resources and services.